Location: Peebles
(55.6412°N, 3.1714°W)
Time: 22:20:28
(UTC+01:00)

NOAA 16 DEB - Pass Details

Date: 10 July 2022
Orbit: 811 x 875 km, 98.7° (Epoch: 15 August)

Event Time Altitude Azimuth Distance (km) Brightness Sun altitude
Rises 23:30:16 0° 219° (SW) 3,349 ? -8.9°
Reaches altitude 10° 23:33:42 10° 243° (WSW) 2,433 ? -9.1°
Maximum altitude 23:36:41 15° 277° (W) 2,120 ? -9.3°
Drops below altitude 10° 23:39:43 10° 311° (NW) 2,466 ? -9.4°
Sets 23:43:16 0° 334° (NNW) 3,421 ? -9.6°
